Regional Weather Roundup
Issued by NWS Wakefield, VA

Home | Current Version | Previous Version | Graphics & Text | Print | Product List | Glossary On
Versions: 1 2 3 4 5 6 7 8 9 10 11 12 13 14 15 16 17 18 19 20 21 22 23 24 25 26 27 28 29 30 31 32 33 34 35 36 37 38 39 40 41 42 43 44 45 46 47 48 49 50
000
ASUS41 KAKQ 230415
RWRAKQ

REGIONAL WEATHER ROUNDUP
NATIONAL WEATHER SERVICE WAKEFIELD VA
1200 AM EDT SAT MAY 23 2015

Note: "fair" indicates few or no clouds below 12,000 feet with no
significant weather and/or obstructions to visibility. * = Denotes
station may not report precipitation (e.g., rain,snow,etc.),
thunder or fog.

VAZ042-051-052>054-056-230500-
NORTHERN VIRGINIA

CITY           SKY/WX    TMP DP  RH WIND       PRES   REMARKS
WASH NATIONAL  PTCLDY    67  45  45 W7        30.24R
DULLES         PTCLDY    63  40  42 N13G18    30.25R
FORT BELVOIR   CLEAR     65  46  50 W6        30.23R
QUANTICO       PTCLDY    62  47  57 NW5       30.25R
FREDERICKSBRG* MOCLDY    60  53  77 CALM      30.23R
STAFFORD*      MOCLDY    53  50  90 CALM      30.28R
WARRENTON      PTCLDY    61  49  65 NW5       30.25R
CULPEPER*      PTCLDY    52  47  83 NW3       30.26R
MANASSAS*      PTCLDY    63  48  59 NW7       30.25R
LEESBURG*      PTCLDY    63  37  39 N10       30.27R
WINCHESTER     CLEAR     61  32  33 NW6       30.27R
FRONT ROYAL*   FAIR      61  46  59 N6        30.26R
LURAY*         MOCLDY    61  48  63 CALM      30.26R
$$

VAZ048-049-060>072-079>083-230500-
CENTRAL AND SOUTH CENTRAL VIRGINIA

CITY           SKY/WX    TMP DP  RH WIND       PRES   REMARKS
RICHMOND       PTCLDY    58  48  69 CALM      30.24R
CHESTERFIELD*  NOT AVBL
PETERSBURG*    CLEAR     51  49  92 S3        30.25R
HANOVER        CLEAR     54  48  80 CALM      30.25R
TAPPAHANNOCK*  CLEAR     53  47  83 CALM      30.24R
QUINTON*       FAIR      55  51  87 CALM      30.23S
CHARLOTTSVILLE PTCLDY    58  45  62 CALM      30.25R
GORDONSVILLE*  FAIR      55  47  74 NW5       30.24R
ORANGE*        PTCLDY    55  50  82 CALM      30.26R
LOUISA*        MOCLDY    54  50  87 CALM      30.23S
BUMPASS*       CLOUDY    56  51  80 CALM      30.24R
FARMVILLE*     CLEAR     51  49  94 CALM      30.25R
CREWE*         FAIR      59  46  60 W3        30.25S
FORT PICKETT*  NOT AVBL
CHASE CITY*    FAIR      56  54  94 CALM      30.27R
CLARKSVILLE*   FAIR      54  50  87 SW3       30.26R
SOUTH HILL*    CLEAR     52  49  89 CALM      30.32R
LAWRENCEVILLE* FAIR      52  48  87 CALM      30.25S
EMPORIA*       CLEAR     46  45  93 CALM      30.27S
$$

VAZ088>098-230500-
SOUTHEAST VIRGINIA

CITY           SKY/WX    TMP DP  RH WIND       PRES   REMARKS
NORFOLK        CLEAR     59  48  67 SW6       30.24R
VIRGINIA BEACH PTCLDY    58  49  72 SW8       30.24R
NORFOLK NAVAL  CLEAR     69  46  43 SW7       30.26R
WEST POINT*    PTCLDY    59  50  73 CALM      30.25R
SALUDA*        FAIR      61  49  65 SW5       30.23R
NEWPORT NEWS   CLEAR     66  49  54 SW7       30.24R
LANGLEY AFB    CLEAR     59  49  71 SW7       30.23R
FORT EUSTIS    CLEAR     65  49  57 VRB3      30.23R
WILLIAMSBURG*  CLEAR     63  52  67 W3        30.25R
HR EXEC AP*    FAIR      48  45  87 CALM      30.27R
FRANKLIN*      CLEAR     54  49  82 CALM      30.26S
WAKEFIELD      CLEAR     55  51  86 CALM      30.25R
$$

VAZ020-022-025-037-045-230500-
WEST CENTRAL AND SOUTHWEST VIRGINIA

CITY           SKY/WX    TMP DP  RH WIND       PRES   REMARKS
STAUNTON*      MOCLDY    58  43  56 CALM      30.29R
WAYNESBORO*    FAIR      55  42  60 SW5       30.28R
HOT SPRINGS VA PTCLDY    52  39  62 W13G18    30.32R
LYNCHBURG      CLEAR     54  43  66 CALM      30.29R
DANVILLE       CLEAR     52  48  86 SW5       30.28R
SOUTH BOSTON*  FAIR      52  50  93 CALM      30.27S
MARTINSVILLE   CLEAR     54  46  74 CALM      30.32R
ROANOKE        PTCLDY    57  42  57 VRB3      30.31S
BLACKSBURG     CLEAR     53  42  66 W3        30.35S
DUBLIN*        CLEAR     52  44  75 W5        30.34S
MARION*        CLEAR     47  42  84 CALM      30.37S
HILLSVILLE*    CLEAR     54  40  58 W6        30.34S
RICHLANDS*     FAIR      53  20  27 CALM      30.35S
WISE*          PTCLDY    52  37  58 CALM      30.36S
ABINGDON*      CLEAR     52  45  76 CALM      30.34S
$$

MDZ021>025-VAZ099-100-230500-
SOUTHERN MARYLAND AND THE DELMARVA PENINSULA

CITY           SKY/WX    TMP DP  RH WIND       PRES   REMARKS
PATUXENT RIVER CLEAR     60  50  69 W7        30.22R
BAY BRIDGE APT   N/A    N/A N/A N/A NW14      30.22R
LEONARDTOWN    PTCLDY    59  46  63 CALM      30.25R
DOVER          CLEAR     63  46  54 W8        30.16R
GEORGETOWN     CLEAR     61  49  64 CALM      30.21R
EASTON         FAIR      64  50  59 NW7       30.26R
CAMBRIDGE      FAIR      61  48  63 CALM      30.22R
SALISBURY      CLEAR     56  51  84 W3        30.20R
OCEAN CITY     CLEAR     62  50  64 W9        30.19R
WALLOPS ISLAND CLEAR     62  53  72 SW7       30.22R
ACCOMACK*      CLEAR     57  54  88 S6        30.22R
$$

NCZ012>017-030>032-230500-
NORTH CENTRAL AND EASTERN NORTH CAROLINA

CITY           SKY/WX    TMP DP  RH WIND       PRES   REMARKS
ROANOKE RAPIDS FAIR      52  50  93 SW3       30.26S
RALEIGH        PTCLDY    55  47  74 CALM      30.28S
ELIZABETH CITY CLEAR     59  52  77 S6        30.26R
AHOSKIE*       CLEAR     52  50  91 CALM      30.27S
EDENTON*       CLEAR     62  54  74 S7        30.27R
CURRITUCK*     CLEAR     59  52  76 CALM      30.26S
KILL DEVIL HLS CLEAR     64  53  68 SW5       30.26R
MANTEO         CLEAR     65  53  64 SW12      30.27S
CAPE HATTERAS  CLEAR     50  45  83 CALM      30.28R
TARBORO*       FAIR      52  51  96 CALM      30.28S
GOLDSBORO      CLEAR     55  52  89 CALM      30.26S
WASHINGTON     CLEAR     57  52  84 CALM      30.29R
GREENVILLE     CLEAR     55  55 100 CALM      30.29R
NEW BERN       CLEAR     57  53  86 CALM      30.30R
WILMINGTON     CLEAR     59  57  93 CALM      30.28R
$$

VAZ048-230500-
ELSEWHERE

CITY           SKY/WX    TMP DP  RH WIND       PRES   REMARKS
HARRISBURG PA  CLEAR     59  27  29 NW14      30.24R
BALTIMORE      PTCLDY    59  36  42 NW6       30.23R
ANNAPOLIS      CLEAR     66  41  40 NW12      30.22R
ANDREWS AFB    CLEAR     64  45  48 W8        30.22R
PHILADELPHIA   CLEAR     66  21  18 NW12      30.18R
HENDERSON NC   CLEAR     53  49  89 SW3       30.27S
GREENSBORO     PTCLDY    60  47  61 CALM      30.29R
ROCKY MOUNT    CLEAR     53  51  93 CALM      30.28R
$$

VAZ100-230500-
MARINE

STATION/POSITION TIME  TEMP    WIND        PRES    WAVE   SWELL
                       AIR SEA DIR/SP/G            HT/PER HT/PER
                 (UTC) (F)     (DEG/KT/KT) (MB)    (FT/S) (FT/S)
BRANDYWINE LGT   0300   66 63  270/ 15/ 16 1021.4R
CAPE MAY NJ      0300   66 67  260/ 15/ 16 1020.8R
LEWES DE         0300   65 63  250/  7/  9 1021.5R
15NM E FENWICK I 0350   62 60              1021.6R   2/ 3
OCEAN-CITY-INLET 0300   64 61  270/  9/ 10 1021.5R
WACHAPREAGUE VA  0300   62 68  240/  4/  6 1023.0R
THOMAS POINT MD  0400   66 65  340/ 14/ 17 1023.5R
GOOSES REEF MD   0400   67 65  290/ 12/ 14 1024.1R   2/ 3
SOLOMONS ISLAND  0300      68                N/A
BISHOPS HEAD MD  0300   68 69  260/ 11/ 13 1022.3R
PINEY POINT MD   0318          300/  9/ 10   N/A
CAMBRIDGE MD     0300   66 70  240/  3/  4 1022.2R
LEWISETTA VA     0300   65 69              1022.7R
RAPPAHANNOCK LGT 0300          230/ 12/ 13 1023.5R
STINGRAY PT      0400   68 69  240/ 12/ 16 1022.8R
YORK RVR RNG VA  0300   68     230/ 11/ 12 1022.7R
YORKTOWN VA      0300   65 71  230/  7/  9 1023.2R
JAMESTOWN VA     0400   64 73  240/  8/ 10 1023.0R
DOMINION TERM VA 0300   68     230/  8/  9 1023.9R
KIPTOPEKE VA     0300      72  220/ 11/ 12   N/A
CHES BAY BRIDGE  0300   66 68  190/ 10/ 12 1023.2R
CAPE HENRY VA    0300   62     200/  7/ 10 1022.4R
CHESAPEAKE LGHT  0300   63     200/ 16/ 17 1024.0R
WILLOUBY STN VA  0300   67     240/ 11/ 12 1024.3R
CAPE HENRY BUOY  0328      62                N/A     2/ 7
1ST LANDING BUOY 0400      67              1023.5R
CAPE CHARLES BUO 0326      66                N/A     2/ 7   2/ 7
OFFSHORE WE BUOY 0311      60                N/A     2/ 7   2/ 7
64NM E OF VA BCH 0350   62 60  210/ 10/ 10 1023.7R   2/ 6   2/ 6
DUCK PIER NC     0300   66 64  190/ 10/ 13 1023.4R
44100 DUCK FRF   0324      62                N/A     2/ 7
44056 DUCK FRF   0311      65                N/A     2/ 7
OREGON INLET NC  0300   65 71  170/  4/  6 1025.0R
HATTERAS NC      0300   65 74  140/  2/  3 1024.7R
DIAMOND SHLS NC  0350   67 77   10/  4/  4 1025.2R   3/ 9   3/ 9
CAPE LOOKOUT NC  0400   67      80/  3/  4 1025.1R
$$



USA.gov is the U.S. government's official web portal to all federal, state and local government web resources and services.